Torna al catalogo

COSMOS 1375 DEB

AttivoLEO
NORAD 18279·DEBRIS·🇷🇺 Russia

Lanciato Jun 6, 1982 da Plesetsk Cosmodrome

Loading…

Prossimi Passaggi (prossime 24 ore)

TLE

AggiornatoSource: Space-Track

Epoca: Sep 13, 2026, 23:25 UTC

1 18279U 82055BB  26256.97625574  .00001404  00000-0  95197-3 0  9996
2 18279  65.7882 217.1425 0055190 310.9871 110.2155 14.02682618 59924

Traccia COSMOS 1375 DEB in tempo reale con AllMySat

Download on the App Store